Terug naar catalogus

STARLINK-36154

ActiefCommunicatieVLEO
NORAD 66939·PAYLOAD·🇺🇸 United States

Gelanceerd Dec 7, 2025 vanaf Vandenberg Space Force Base

Loading…

Volgende Passages (komende 24 uur)

TLE

VersSource: CelesTrak SupGP

Epoch: Sep 14, 2026, 22:53 UTC

1 66939C 25286Q   26257.95395833 -.00033958  00000+0 -10030-2 0  2575
2 66939  53.1574 195.4915 0001344  90.5801  74.8477 15.34417239    16

Volg STARLINK-36154 in realtime met AllMySat

Download on the App Store